Voltar ao catálogo

STARLINK-5870

AtivoComunicaçõesVLEO
NORAD 57222·PAYLOAD·🇺🇸 United States

Lançado Jul 7, 2023 de Vandenberg Space Force Base

Loading…

Próximas Passagens (próximas 24 horas)

TLE

AtualizadoSource: CelesTrak SupGP

Época: Sep 14, 2026, 21:10 UTC

1 57222C 23094E   26257.88243056  .00051806  00000+0  18763-2 0  2577
2 57222  43.0020  41.9592 0001667 271.1597  86.9121 15.27554287    15

Acompanhe STARLINK-5870 em tempo real com AllMySat

Download on the App Store